Time,TemperatureF,DewpointF,PressureIn,WindDirection,WindDirectionDegrees,WindSpeedMPH,WindSpeedGustMPH,Humidity,HourlyPrecipIn,Conditions,Clouds,dailyrainin,SoftwareType,DateUTC
2013-04-06 00:00:00,66.9,62.6,29.84,SW,225,0.0,6.3,86,0.00,,---,0.04,VWS V13.01,2013-04-06 04:00:00,
2013-04-06 00:05:00,66.7,62.1,29.84,SW,225,0.0,0.0,85,0.00,,---,0.04,VWS V13.01,2013-04-06 04:05:00,
2013-04-06 00:10:00,66.9,62.3,29.84,SW,225,0.0,0.0,85,0.00,,---,0.04,VWS V13.01,2013-04-06 04:10:00,
2013-04-06 00:15:00,66.7,61.8,29.84,SW,225,0.0,0.9,84,0.00,,---,0.04,VWS V13.01,2013-04-06 04:15:00,
2013-04-06 00:20:00,66.6,61.6,29.84,SW,225,0.0,7.8,84,0.00,,---,0.04,VWS V13.01,2013-04-06 04:20:00,
2013-04-06 00:25:00,66.4,61.1,29.84,SW,225,0.0,7.8,83,0.00,,---,0.04,VWS V13.01,2013-04-06 04:25:00,
2013-04-06 00:30:00,66.4,60.7,29.85,SW,225,0.0,7.8,82,0.00,,---,0.04,VWS V13.01,2013-04-06 04:30:00,
2013-04-06 00:35:00,65.8,60.2,29.85,SW,225,0.0,7.8,82,0.00,,---,0.04,VWS V13.01,2013-04-06 04:35:00,
2013-04-06 00:40:00,65.7,59.3,29.85,SW,225,0.0,7.8,80,0.00,,---,0.04,VWS V13.01,2013-04-06 04:40:00,
2013-04-06 00:45:00,65.5,58.8,29.85,SW,225,0.0,7.8,79,0.00,,---,0.04,VWS V13.01,2013-04-06 04:45:00,
2013-04-06 00:50:00,65.3,58.3,29.85,SW,225,0.0,7.8,78,0.00,,---,0.04,VWS V13.01,2013-04-06 04:50:00,
2013-04-06 00:55:00,65.1,58.1,29.85,SW,225,1.6,7.8,78,0.00,,---,0.04,VWS V13.01,2013-04-06 04:55:00,
2013-04-06 01:00:00,64.9,57.9,29.85,WSW,248,0.0,7.8,78,0.00,,---,0.04,VWS V13.01,2013-04-06 05:00:00,
2013-04-06 01:05:00,64.6,57.2,29.85,SW,225,0.0,0.0,77,0.00,,---,0.00,VWS V13.01,2013-04-06 05:05:00,
2013-04-06 01:10:00,64.2,56.5,29.85,SW,225,0.0,0.0,76,0.00,,---,0.00,VWS V13.01,2013-04-06 05:10:00,
2013-04-06 01:15:00,64.0,56.3,29.85,SW,225,0.0,5.4,76,0.00,,---,0.00,VWS V13.01,2013-04-06 05:15:00,
2013-04-06 01:20:00,63.9,56.2,29.85,SW,225,0.0,5.4,76,0.00,,---,0.00,VWS V13.01,2013-04-06 05:20:00,
2013-04-06 01:26:00,63.5,55.8,29.85,SW,225,0.0,5.4,76,0.00,,---,0.00,VWS V13.01,2013-04-06 05:26:00,
2013-04-06 01:31:00,63.5,55.8,29.85,SW,225,0.0,5.4,76,0.00,,---,0.00,VWS V13.01,2013-04-06 05:31:00,
2013-04-06 01:36:00,63.1,55.5,29.85,SW,225,0.0,5.4,76,0.00,,---,0.00,VWS V13.01,2013-04-06 05:36:00,
2013-04-06 01:41:00,63.0,55.3,29.85,SW,225,0.0,5.4,76,0.00,,---,0.00,VWS V13.01,2013-04-06 05:41:00,
2013-04-06 01:46:00,62.8,55.1,29.85,SW,225,0.0,5.4,76,0.00,,---,0.00,VWS V13.01,2013-04-06 05:46:00,
2013-04-06 01:51:00,62.8,55.1,29.84,SW,225,0.0,5.4,76,0.00,,---,0.00,VWS V13.01,2013-04-06 05:51:00,
2013-04-06 01:56:00,62.6,55.3,29.85,SW,225,0.0,5.4,77,0.00,,---,0.00,VWS V13.01,2013-04-06 05:56:00,
2013-04-06 02:00:00,62.2,55.0,29.85,SW,225,0.0,5.4,77,0.00,,---,0.00,VWS V13.01,2013-04-06 06:00:00,
2013-04-06 02:01:00,62.2,55.0,29.84,SW,225,0.0,0.0,77,0.00,,---,0.00,VWS V13.01,2013-04-06 06:01:00,
2013-04-06 02:06:00,62.1,54.8,29.85,SW,225,0.0,0.0,77,0.00,,---,0.00,VWS V13.01,2013-04-06 06:06:00,
2013-04-06 02:11:00,62.1,54.8,29.85,SW,225,0.0,2.0,77,0.00,,---,0.00,VWS V13.01,2013-04-06 06:11:00,
2013-04-06 02:16:00,61.9,55.0,29.85,SW,225,0.0,2.0,78,0.00,,---,0.00,VWS V13.01,2013-04-06 06:16:00,
2013-04-06 02:21:00,61.7,54.8,29.85,SW,225,0.0,2.0,78,0.00,,---,0.00,VWS V13.01,2013-04-06 06:21:00,
2013-04-06 02:26:00,61.7,54.8,29.85,SW,225,0.0,2.0,78,0.00,,---,0.00,VWS V13.01,2013-04-06 06:26:00,
2013-04-06 02:31:00,61.7,55.1,29.84,SW,225,0.0,2.0,79,0.00,,---,0.00,VWS V13.01,2013-04-06 06:31:00,
2013-04-06 02:36:00,61.5,55.3,29.85,SW,225,0.0,2.0,80,0.00,,---,0.00,VWS V13.01,2013-04-06 06:36:00,
2013-04-06 02:41:00,61.5,55.3,29.85,SW,225,2.5,2.5,80,0.00,,---,0.00,VWS V13.01,2013-04-06 06:41:00,
2013-04-06 02:46:00,61.5,55.3,29.85,SW,225,0.0,2.5,80,0.00,,---,0.00,VWS V13.01,2013-04-06 06:46:00,
2013-04-06 02:51:00,61.5,55.6,29.84,SW,225,0.0,2.5,81,0.00,,---,0.00,VWS V13.01,2013-04-06 06:51:00,
2013-04-06 02:56:00,61.5,55.6,29.84,SW,225,0.0,2.5,81,0.00,,---,0.00,VWS V13.01,2013-04-06 06:56:00,
2013-04-06 03:00:00,61.5,55.6,29.84,SW,225,0.0,2.5,81,0.00,,---,0.00,VWS V13.01,2013-04-06 07:00:00,
2013-04-06 22:19:00,69.3,55.7,29.98,NE,45,0.0,4.3,62,0.00,,---,0.00,VWS V13.01,2013-04-07 02:19:00,
2013-04-06 22:20:00,69.3,55.7,29.98,NE,45,0.0,4.3,62,0.00,,---,0.00,VWS V13.01,2013-04-07 02:20:00,
2013-04-06 22:25:00,69.3,56.1,29.98,NE,45,0.0,4.3,63,0.00,,---,0.00,VWS V13.01,2013-04-07 02:25:00,
2013-04-06 22:30:00,69.3,56.1,29.98,NE,45,0.0,4.3,63,0.00,,---,0.00,VWS V13.01,2013-04-07 02:30:00,
2013-04-06 22:35:00,69.4,56.8,29.98,NE,45,0.0,4.3,64,0.00,,---,0.00,VWS V13.01,2013-04-07 02:35:00,
2013-04-06 22:40:00,69.8,57.5,29.98,ENE,68,0.0,4.3,65,0.00,,---,0.00,VWS V13.01,2013-04-07 02:40:00,
2013-04-06 22:45:00,70.0,57.7,29.99,NE,45,0.0,4.3,65,0.00,,---,0.00,VWS V13.01,2013-04-07 02:45:00,
2013-04-06 22:50:00,70.3,58.5,29.99,NE,45,0.0,4.3,66,0.00,,---,0.00,VWS V13.01,2013-04-07 02:50:00,
2013-04-06 22:55:00,70.3,58.0,29.99,NE,45,0.0,4.3,65,0.00,,---,0.00,VWS V13.01,2013-04-07 02:55:00,
2013-04-06 23:00:00,70.3,58.0,29.99,NE,45,0.0,0.0,65,0.00,,---,0.00,VWS V13.01,2013-04-07 03:00:00,
2013-04-06 23:05:00,70.2,57.9,29.99,NE,45,1.6,3.6,65,0.00,,---,0.00,VWS V13.01,2013-04-07 03:05:00,
2013-04-06 23:10:00,70.3,58.0,29.99,East,90,1.6,3.6,65,0.00,,---,0.00,VWS V13.01,2013-04-07 03:10:00,
2013-04-06 23:15:00,70.5,58.2,29.99,ENE,68,2.0,4.0,65,0.00,,---,0.00,VWS V13.01,2013-04-07 03:15:00,
2013-04-06 23:20:00,70.7,57.9,29.99,NE,45,2.2,5.1,64,0.00,,---,0.00,VWS V13.01,2013-04-07 03:20:00,
2013-04-06 23:25:00,70.7,57.5,29.99,NE,45,2.5,5.1,63,0.00,,---,0.00,VWS V13.01,2013-04-07 03:25:00,
2013-04-06 23:31:00,70.9,57.2,29.99,NE,45,0.0,5.1,62,0.00,,---,0.00,VWS V13.01,2013-04-07 03:31:00,
2013-04-06 23:36:00,70.9,57.2,29.99,NE,45,0.0,5.1,62,0.00,,---,0.00,VWS V13.01,2013-04-07 03:36:00,
2013-04-06 23:41:00,70.7,57.1,30.00,NE,45,0.0,5.1,62,0.00,,---,0.00,VWS V13.01,2013-04-07 03:41:00,
2013-04-06 23:46:00,70.5,56.9,30.00,NE,45,0.0,5.1,62,0.00,,---,0.00,VWS V13.01,2013-04-07 03:46:00,
2013-04-06 23:51:00,70.5,57.3,30.00,NE,45,0.0,5.1,63,0.00,,---,0.00,VWS V13.01,2013-04-07 03:51:00,
2013-04-06 23:56:00,70.3,57.6,30.00,NE,45,2.7,5.1,64,0.00,,---,0.00,VWS V13.01,2013-04-07 03:56:00,